Location: Poughquag
(41.6090°N, 73.6820°W)
Time: 06:11:43
(UTC-05:00)

STRAND 1 - Pass Details

Date: 01 December 2023
Orbit: 766 x 778 km, 98.4° (Epoch: 24 February)

Event Time Altitude Azimuth Distance (km) Brightness Sun altitude
Exits shadow 20:24:44 11° 298° (WNW) 2,261 ? -44.1°
Drops below altitude 10° 20:25:32 10° 289° (WNW) 2,308 ? -44.2°
Sets 20:29:51 0° 253° (WSW) 3,230 ? -45.0°
